[[{"header":{"parameterUnit":"m.s-1","parameterCategory":1,"la1":30.2991,"la2":30.254,"lo1":-89.0895,"lo2":-89.0444,"dy":0.0017,"dx":0.0017,"nx":28,"ny":28,"refTime":"2025-07-08T03:00:00:Z","depth":0,"parameterNumber":2,"parameterNumberName":"U-component_of_WINDS"},"data":[0,0,0,0,0,0,0,0,0,0,0,0,0,0,0,0,0,0,0,0,0,0,0,0,0,0,0,0,0,0,0,0,0,0,0,0,0,0,0,0,0,0,0,0,0,0,0,0,0,0,0,0,0,0,0,0,0,0,4.2747,4.2749,0,4.2852,4.2853,4.2855,4.2764,4.276,4.2756,4.2752,4.2862,4.2868,4.2874,0,0,0,0,0,0,0,0,0,0,0,0,0,4.2469,4.2474,4.2747,4.2749,4.275,4.2852,4.2853,4.2855,4.2764,4.276,4.2755,4.2751,4.2859,4.2867,4.2875,0,0,0,0,0,0,0,0,0,0,0,0,0,4.2583,4.2476,4.2747,4.2717,4.2715,4.2852,4.2854,4.2855,4.2765,4.2759,4.2754,4.2749,4.2857,4.2866,4.2876,4.3048,0,0,4.2905,4.2909,0,0,0,0,0,0,0,0,4.2577,4.2594,4.272,4.2719,4.2718,4.2789,4.2795,4.292,4.2767,4.2746,4.2752,4.2746,4.2842,4.2853,4.2885,4.3053,4.3058,4.2906,4.2912,4.2916,4.2919,0,0,0,0,0,0,0,4.2569,4.2589,4.2789,4.2722,4.2721,4.2698,4.2708,4.2818,4.2825,4.2748,4.2741,4.2755,4.284,4.2876,4.2887,4.3059,4.2906,4.2914,4.292,4.2924,4.3373,4.3379,0,0,0,0,0,0,4.2564,4.2583,4.2785,4.2792,4.2632,4.2708,4.2719,4.2772,4.2823,4.2825,4.276,4.275,4.2862,4.2875,4.289,4.3094,4.2916,4.2925,4.293,4.3367,4.3374,4.3381,0,0,0,0,0,0,4.2559,4.2583,4.2781,4.2686,4.2709,4.2719,4.2779,4.2777,4.2812,4.2832,4.2833,4.2795,4.2858,4.2877,4.3009,4.3097,4.2929,4.2938,4.3359,4.3369,4.3378,4.3505,0,0,0,0,0,0,4.2551,4.2582,4.2648,4.2688,4.2715,4.2899,4.2784,4.2783,4.2829,4.2817,4.2865,4.2868,4.2855,4.2995,4.3019,4.3107,4.2945,4.3352,4.3364,4.3375,4.3493,4.3518,4.3539,0,0,0,0,0,4.2541,4.268,4.2651,4.2676,4.2797,4.2904,4.292,4.2902,4.2836,4.2902,4.2915,4.2866,4.3083,4.3009,4.3035,4.3128,4.3346,4.336,4.3374,4.3483,4.3513,4.3538,0,0,0,0,0,0,4.2651,4.2685,4.2653,4.2809,4.2854,4.2889,4.2972,4.2934,4.3,4.2987,4.2962,4.2974,4.3113,4.3133,4.3051,4.3297,4.3204,4.3224,4.3279,4.3307,4.3329,4.3322,4.2953,0,0,0,0,0,4.2693,4.2777,4.2802,4.2937,4.2961,4.2963,4.3009,4.2991,4.3037,4.3056,4.3078,4.3125,4.3204,4.3256,4.333,4.3495,4.3504,4.3572,4.3594,4.3613,4.363,4.3719,4.3749,4.3426,4.3426,4.3426,0,0,4.2781,4.281,4.2865,4.296,4.2993,4.308,4.2979,4.3077,4.3141,4.3071,4.3197,4.3215,4.3266,4.3415,4.3482,4.3437,4.3721,4.363,4.3645,4.3653,4.3736,4.3766,4.3794,4.3436,4.3434,4.3433,0,0,4.2987,4.3017,4.3132,4.3167,4.3217,4.3217,4.3245,4.3285,4.3294,4.342,4.3368,4.3445,4.3581,4.3619,4.3656,4.3874,4.3831,4.3898,4.4017,4.4104,4.4129,4.4151,4.4229,4.4257,4.3915,4.3916,4.3916,0,4.309,4.322,4.3196,4.3297,4.334,4.3279,4.3395,4.343,4.3503,4.3534,4.3481,4.365,4.368,4.3837,4.389,4.3922,4.3953,4.3893,4.4127,4.4149,4.417,4.4244,4.4273,4.3924,4.3923,4.3922,4.3921,0,4.3344,4.3435,4.3522,4.3593,4.3645,4.3754,4.3746,4.3802,4.3779,4.3785,4.3913,4.3946,4.4025,4.4061,4.404,4.4215,4.4185,4.413,4.4037,4.4209,4.4278,4.4306,4.3935,4.3932,4.393,4.3928,0,0,4.3624,4.3678,4.3711,4.3742,4.3792,4.3862,4.3967,4.4043,4.4091,4.4143,4.423,4.4346,4.4295,4.4337,4.4319,4.4395,4.4565,4.4331,4.4332,4.4373,4.4759,4.4801,4.4834,4.4536,4.4542,4.4546,4.4755,0,4.3832,4.4014,4.3995,4.4168,4.4251,4.4193,4.4284,4.4325,4.4332,4.4404,4.4411,4.4494,4.442,4.4445,4.4517,4.4529,4.4642,4.4514,4.4618,4.4622,4.4608,4.487,4.4914,4.511,4.4782,4.4786,4.479,0,4.4099,4.4159,4.434,4.4377,4.4411,4.4493,4.4561,4.463,4.4674,4.4674,4.472,4.4689,4.4794,4.4697,4.4841,4.4754,4.4795,4.4807,4.4814,4.4824,4.4717,4.4887,4.5172,4.5202,4.4832,4.4828,4.4825,0,4.4285,4.4411,4.4535,4.4563,4.4609,4.4668,4.469,4.4729,4.4775,4.4834,4.4864,4.4934,4.4973,4.5028,4.5017,4.4948,4.5164,4.5067,4.5167,4.5167,4.5216,4.5214,4.5513,4.5242,4.5241,4.5241,4.524,0,4.4519,4.4633,4.4619,4.4696,4.4821,4.4798,4.4922,4.4936,4.4971,4.5049,4.5003,4.5078,4.5057,4.5131,4.5122,4.5243,4.5261,4.5263,4.526,4.5268,4.5268,4.5296,4.5282,4.5249,4.5247,4.5245,4.5244,0,4.4749,4.4745,4.4877,4.4908,4.4918,4.5009,4.5036,4.5108,4.511,4.521,4.5232,4.5236,4.532,4.5314,4.5409,4.5403,4.5552,4.5532,4.5537,4.5533,4.5633,4.5624,4.5961,4.6004,4.5705,4.5708,4.5711,0,4.49,4.4985,4.5026,4.5074,4.51,4.5179,4.5226,4.5205,4.5256,4.5312,4.5377,4.5457,4.5519,4.5656,4.5668,4.574,4.5722,4.5835,4.5732,4.5737,4.5724,4.5719,4.5727,4.5855,4.5859,4.5861,4.5864,0,4.5168,4.516,4.5229,4.5297,4.5354,4.5407,4.5455,4.5497,4.5481,4.554,4.5625,4.5674,4.5769,4.5849,4.5917,4.5939,4.59,4.5895,4.5922,4.5932,4.5932,4.5933,4.5592,4.5888,4.5886,4.5884,4.5883,4.5882,4.5363,4.5436,4.5475,4.5553,4.5586,4.5631,4.57,4.5711,4.5781,4.5857,4.584,4.5936,4.5976,4.6063,4.6092,4.6166,4.6125,4.6164,4.6174,4.6185,4.6196,4.5919,4.6178,4.6177,4.6177,4.6176,4.6175,0,4.5628,4.565,4.5722,4.5789,4.585,4.5806,4.5856,4.591,4.5995,4.6035,4.6097,4.6194,4.627,4.6287,4.636,4.6416,4.6399,4.6436,4.6432,4.6438,4.6228,4.6198,4.6448,4.6448,4.6448,4.6448,4.6448,4.6448,4.5774,4.5895,4.5892,4.6028,4.6049,4.6142,4.6174,4.6215,4.6248,4.6358,4.6421,4.643,4.6461,4.6535,4.6603,4.6606,4.6635,4.6679,4.6675,4.648,4.6452,4.6426,4.6398,4.6685,4.6686,4.6878,4.6879,4.6881]},{"header":{"parameterUnit":"m.s-1","parameterCategory":1,"la1":30.2991,"la2":30.254,"lo1":-89.0895,"lo2":-89.0444,"dy":0.0017,"dx":0.0017,"nx":28,"ny":28,"refTime":"2025-07-08T03:00:00:Z","depth":0,"parameterNumber":3,"parameterNumberName":"V-component_of_WINDS"},"data":[0,0,0,0,0,0,0,0,0,0,0,0,0,0,0,0,0,0,0,0,0,0,0,0,0,0,0,0,0,0,0,0,0,0,0,0,0,0,0,0,0,0,0,0,0,0,0,0,0,0,0,0,0,0,0,0,0,0,-0.529,-0.529,0,-0.5348,-0.5349,-0.5349,-0.5376,-0.5376,-0.5376,-0.5376,-0.5439,-0.544,-0.5442,0,0,0,0,0,0,0,0,0,0,0,0,0,-0.5205,-0.5206,-0.529,-0.529,-0.5291,-0.5348,-0.5349,-0.5349,-0.5376,-0.5376,-0.5376,-0.5376,-0.5438,-0.544,-0.5442,0,0,0,0,0,0,0,0,0,0,0,0,0,-0.525,-0.5207,-0.5289,-0.5311,-0.5314,-0.5348,-0.5349,-0.535,-0.5376,-0.5376,-0.5376,-0.5376,-0.5437,-0.544,-0.5442,-0.546,0,0,-0.545,-0.5452,0,0,0,0,0,0,0,0,-0.5248,-0.5254,-0.5307,-0.531,-0.5312,-0.5354,-0.5342,-0.5387,-0.5376,-0.5352,-0.5376,-0.5376,-0.5411,-0.5416,-0.5427,-0.5463,-0.5466,-0.5451,-0.5452,-0.5453,-0.5454,0,0,0,0,0,0,0,-0.5245,-0.5251,-0.5313,-0.5308,-0.5311,-0.5319,-0.5325,-0.5351,-0.5382,-0.5354,-0.5356,-0.5363,-0.5412,-0.5424,-0.5429,-0.5467,-0.5451,-0.5453,-0.5454,-0.5456,-0.5522,-0.5523,0,0,0,0,0,0,-0.5238,-0.5248,-0.5311,-0.5315,-0.5279,-0.5321,-0.5328,-0.5341,-0.5381,-0.5387,-0.5363,-0.5364,-0.542,-0.5426,-0.5431,-0.5455,-0.5453,-0.5456,-0.5457,-0.5522,-0.5523,-0.5523,0,0,0,0,0,0,-0.5236,-0.5243,-0.5309,-0.5282,-0.5291,-0.5322,-0.5337,-0.5342,-0.5354,-0.5388,-0.5394,-0.5369,-0.542,-0.5427,-0.5453,-0.5458,-0.5457,-0.5459,-0.5522,-0.5522,-0.5523,-0.5503,0,0,0,0,0,0,-0.5233,-0.5242,-0.5248,-0.5282,-0.5292,-0.5328,-0.5337,-0.5344,-0.5358,-0.536,-0.5395,-0.5401,-0.5421,-0.5449,-0.5455,-0.5461,-0.5461,-0.5522,-0.5522,-0.5523,-0.5504,-0.5503,-0.5502,0,0,0,0,0,-0.523,-0.5241,-0.5248,-0.5256,-0.53,-0.5328,-0.5335,-0.5356,-0.5358,-0.5366,-0.5387,-0.54,-0.5456,-0.5451,-0.5459,-0.5466,-0.5522,-0.5522,-0.5523,-0.5504,-0.5503,-0.5502,0,0,0,0,0,0,-0.5208,-0.5246,-0.5254,-0.5276,-0.5299,-0.5333,-0.5342,-0.5354,-0.5377,-0.5378,-0.5405,-0.5413,-0.5436,-0.5454,-0.5448,-0.5486,-0.549,-0.5492,-0.5473,-0.5473,-0.5472,-0.5467,-0.5463,0,0,0,0,0,-0.5205,-0.5224,-0.5256,-0.5273,-0.5283,-0.5311,-0.5324,-0.5338,-0.5363,-0.5373,-0.5397,-0.5422,-0.5445,-0.546,-0.5483,-0.5506,-0.5515,-0.5515,-0.5514,-0.5513,-0.5515,-0.553,-0.553,-0.5524,-0.5524,-0.5524,0,0,-0.5201,-0.5224,-0.5234,-0.5269,-0.5288,-0.5308,-0.5319,-0.5339,-0.5354,-0.5377,-0.5402,-0.5421,-0.545,-0.5475,-0.5487,-0.549,-0.5519,-0.5514,-0.5513,-0.5515,-0.553,-0.5531,-0.5531,-0.5525,-0.5525,-0.5525,0,0,-0.5202,-0.5221,-0.5237,-0.5256,-0.5284,-0.5303,-0.5306,-0.5339,-0.5352,-0.5377,-0.5395,-0.5414,-0.5454,-0.5474,-0.549,-0.55,-0.5513,-0.5507,-0.5504,-0.5517,-0.5518,-0.5518,-0.5523,-0.5524,-0.5509,-0.5508,-0.5508,0,-0.5193,-0.5222,-0.5244,-0.5263,-0.5278,-0.5299,-0.5316,-0.5334,-0.5369,-0.538,-0.5383,-0.5433,-0.5454,-0.5484,-0.5487,-0.5499,-0.5505,-0.5503,-0.5516,-0.5517,-0.5517,-0.5522,-0.5523,-0.5508,-0.5508,-0.5508,-0.5508,0,-0.5209,-0.523,-0.5239,-0.5272,-0.5288,-0.5306,-0.5332,-0.5347,-0.536,-0.5378,-0.5405,-0.5432,-0.5461,-0.5469,-0.5483,-0.5502,-0.5503,-0.551,-0.5515,-0.5517,-0.5521,-0.5523,-0.5506,-0.5507,-0.5507,-0.5507,0,0,-0.5198,-0.5242,-0.5246,-0.5261,-0.5295,-0.5311,-0.5331,-0.5359,-0.5371,-0.5395,-0.5413,-0.5446,-0.5453,-0.5471,-0.5487,-0.55,-0.5507,-0.5506,-0.5507,-0.5505,-0.553,-0.5524,-0.5526,-0.5515,-0.5516,-0.5516,-0.5528,0,-0.5204,-0.5239,-0.5259,-0.5286,-0.5306,-0.5326,-0.5344,-0.5367,-0.5385,-0.5405,-0.5426,-0.5449,-0.5457,-0.5468,-0.548,-0.5503,-0.5512,-0.5503,-0.5534,-0.5534,-0.5525,-0.5528,-0.5522,-0.5531,-0.553,-0.553,-0.553,0,-0.5216,-0.5238,-0.5267,-0.5299,-0.5308,-0.5323,-0.535,-0.5369,-0.5396,-0.5409,-0.5429,-0.5445,-0.5468,-0.5471,-0.5504,-0.5497,-0.5512,-0.5525,-0.5526,-0.553,-0.5532,-0.5532,-0.5535,-0.5536,-0.5533,-0.5533,-0.5533,0,-0.5205,-0.5243,-0.5265,-0.5277,-0.5315,-0.5325,-0.5342,-0.5369,-0.5384,-0.5409,-0.542,-0.5447,-0.5462,-0.5484,-0.5508,-0.5508,-0.5539,-0.5544,-0.5551,-0.555,-0.5556,-0.5555,-0.5561,-0.5565,-0.5565,-0.5565,-0.5565,0,-0.521,-0.5227,-0.526,-0.5274,-0.5294,-0.5318,-0.5337,-0.5356,-0.538,-0.5398,-0.5418,-0.5436,-0.5466,-0.5488,-0.5507,-0.5532,-0.5538,-0.555,-0.5555,-0.5548,-0.5547,-0.5558,-0.5558,-0.5565,-0.5565,-0.5565,-0.5565,0,-0.5201,-0.5224,-0.525,-0.5283,-0.5292,-0.5305,-0.5335,-0.5349,-0.5369,-0.5392,-0.5399,-0.543,-0.5456,-0.5482,-0.5518,-0.5531,-0.5556,-0.5562,-0.5546,-0.5549,-0.5554,-0.5554,-0.5568,-0.5571,-0.5572,-0.5572,-0.5572,0,-0.5203,-0.5216,-0.5251,-0.5264,-0.5279,-0.5301,-0.5317,-0.5342,-0.5358,-0.539,-0.5401,-0.5429,-0.5452,-0.5494,-0.552,-0.5548,-0.5556,-0.5559,-0.556,-0.5553,-0.5556,-0.5555,-0.5557,-0.5558,-0.5558,-0.5558,-0.5558,0,-0.5203,-0.5214,-0.5235,-0.5261,-0.5279,-0.5301,-0.5323,-0.5334,-0.5363,-0.5381,-0.5407,-0.5425,-0.5462,-0.5489,-0.552,-0.5539,-0.5554,-0.5557,-0.556,-0.5554,-0.5544,-0.555,-0.5544,-0.5557,-0.5557,-0.5557,-0.5557,-0.5557,-0.52,-0.5213,-0.5239,-0.5263,-0.5282,-0.5303,-0.5318,-0.5339,-0.5362,-0.5392,-0.5406,-0.5433,-0.5462,-0.5505,-0.5523,-0.5546,-0.555,-0.5554,-0.5555,-0.5556,-0.5555,-0.554,-0.5552,-0.5552,-0.5552,-0.5552,-0.5552,0,-0.5201,-0.522,-0.5241,-0.5271,-0.529,-0.5301,-0.5327,-0.5343,-0.5366,-0.539,-0.5413,-0.5444,-0.5471,-0.55,-0.5529,-0.5542,-0.555,-0.5549,-0.5548,-0.5553,-0.555,-0.5544,-0.5542,-0.5542,-0.5542,-0.5542,-0.5542,-0.5542,-0.5205,-0.5227,-0.5241,-0.5274,-0.5293,-0.5318,-0.5332,-0.5352,-0.5372,-0.5405,-0.5428,-0.5446,-0.5473,-0.5504,-0.553,-0.5538,-0.5548,-0.5545,-0.5555,-0.5552,-0.5553,-0.5553,-0.5548,-0.5547,-0.5547,-0.5557,-0.5557,-0.5557]}]]